STARLINK-11274, 61001

Orbit data source: Space-Track

STARLINK-11274, 61001 is a payload satellite owned by SpaceX/Seattle (US) in LEO that was launched on Thu, 05 Sep 2024 UTC via an FALCON 9 launch vehicle from the Air Force Eastern Test Range (AFETR). Payload-class satellites include a variety of spacecraft equipped with specific instruments for various scientific and technological missions. These include communications satellites like Starlink; space stations such as the ISS; scientific satellites like the Hubble; Earth observation satellites from companies like Planet Labs, Umbra, and HawkEye 360; GPS; miniature CubeSats for education and research; and military/defense satellites.

Loading next visibility...
Identifier
61001, 2024-158M
Orbit
LEO
Country
Flag of USUS
Related business
Manufacturer
SpaceX/Seattle
Mission
Operational Commercial Communications
Bus & Motor
STARLINK V2MD, Unknown motor
Mass
960 kg wet, ~910 kg dry
Launch date (UTC)
2024-09-05 (1 year ago)
Launch vehicle
FALCON 9
Launch site
Air Force Eastern Test Range (AFETR)
Object type
Payload
Rocket body
Debris
Shape & HBR
Box + 2 Pan, 14.5 m
Radar Cross Section
36.964 m², Large (>1 m²)

Expand to show TLE details & history
Last TLE update: 1 day ago

TLE from 1 day ago
0 STARLINK-11274
1 61001U 24158M   25260.62167382 -.00001094  00000-0 -41749-5 0  9994
2 61001  53.1590  54.3299 0000664  84.6654 275.4440 15.69715714 60406
Epoch: 2025-09-17T14:55Z
TLE epoch observation values (Epoch: 2025-09-17T14:55:12.618Z)
Latitude
0.00003°
Longitude
-166.26764°
Altitude
360.583 km
Speed
7.694 km/s
True Right ascension
03h 37m 19s
True Declination
0° 00' 00"
Sunlit
Object was in full shadow at epoch
Visualization orbit readout
Latitude
Unknown
Longitude
Unknown
Altitude
Unknown
Speed
Unknown
Apparent Right ascension
Unknown
Apparent Declination
Unknown
Sunlit
N/A
Visualization observer readout
Local Sidereal Time
12:48:54
Azimuth
Unknown
Elevation
Unknown
Doppler factor
Unknown
Orbital elements
Apogee altitude
360.419 km
Perigee altitude
359.524 km
Semi-major axis
6,738.108 km
Eccentricity
0.00007
Inclination
53.159°
RAAN
54.3299°
Arg. of periapsis
84.6654°
True anomaly
275.43643°
Mean anomaly
275.444°
Eccentric anomaly
275.44021°
Mean motion
3.92407 °/min
Orbital period
91.74 mins
BSTAR
-0.0000041749
Loading maneuver chart data...
Computing Atmospheric mass density...
Loading historical data...
Loading historical data...
Loading historical data...
Loading historical data...
Loading historical data...
Loading historical data...
Loading historical data...

Documentation

Showing up to 5 results
|